AirNav   Air Wisconsin pilot careers
 
 884 users online  

KGKY Arlington Municipal Airport
Arlington, Texas, USA

GOING TO ARLINGTON?


FAA INFORMATION EFFECTIVE 08 NOVEMBER 2018

Location

FAA Identifier: GKY
Lat/Long: 32-39-49.9000N / 097-05-39.4000W
32-39.831667N / 097-05.656667W
32.6638611 / -97.0942778
(estimated)
Elevation: 628.2 ft. / 191.5 m (surveyed)
Variation: 06E (2000)
From city: 4 miles S of ARLINGTON, TX
Time zone: UTC -6 (UTC -5 during Daylight Saving Time)
Zip code: 76018

Airport Operations

Airport use: Open to the public
Activation date: 05/1971
Control tower: yes
ARTCC: FORT WORTH CENTER
FSS: FORT WORTH FLIGHT SERVICE STATION
NOTAMs facility: GKY (NOTAM-D service available)
Attendance: CONTINUOUS
Wind indicator: lighted
Segmented circle: yes
Lights: MIRL RY 16/34 PRESET MED INTST; HIGHER INTST BY ATCT REQ. WHEN ATCT CLSD ACTVT MALSR RY 34 - CTAF. PAPI RYS 16 & 34 OPER CONTINUOUSLY.
Beacon: white-green (lighted land airport)
Operates sunset to sunrise.

Airport Communications

CTAF: 128.625
WX ASOS: 127.375 (817-557-0251)
ARLINGTON GROUND: 121.875 [0700-2100]
ARLINGTON TOWER: 128.625 [0700-2100]
REGIONAL APPROACH: 135.975
REGIONAL DEPARTURE: 135.975
CLEARANCE DELIVERY: 121.875 118.85 WHEN GKY ATCT CLSD
DODJE STAR: 125.2 125.9
KNEAD STAR: 135.975
LIKES STAR: 125.8(SOUTH) 135.975(NORTH)
MOTZA STAR: 118.1(SOUTH) 125.8(NORTH)
REEKO STAR: 125.2
SANGR STAR: 124.3
SASIE STAR: 124.3
SLUGG STAR: 125.8(SOUTH) 135.975(NORTH)
SWVAY STAR: 135.975
WESAT STAR: 118.1(SOUTH) 125.8(NORTH)
WX AWOS-3P at GPM (3 nm NE): 118.475 (972-606-1433)
WX ASOS at RBD (11 nm E): PHONE 214-330-5317
WX AWOS-3 at FWS (12 nm SW): 120.025 (817-426-4172)
WX ASOS at DFW (14 nm N): PHONE 972-615-2608
WX AWOS-3 at JWY (15 nm SE): 119.575 (972-937-4747)
WX AWOS-3 at 49T (16 nm NE): 135.425 (214-670-1243)
WX ASOS at DAL (16 nm NE): PHONE 214-353-1551
WX ASOS at FTW (16 nm NW): PHONE 817-740-3346
WX AWOS-3 at LNC (20 nm E): 118.975 (972-227-0471)

Nearby radio navigation aids

VOR radial/distance  VOR name  Freq  Var
TTTr186/12.6MAVERICK VOR/DME113.1006E
FUZr156/14.2RANGER VORTAC115.7006E
CVEr209/16.6COWBOY VOR/DME116.2006E

 
NDB name  Hdg/Dist  Freq  Var  ID
MESQUITE250/29.824803EPQF .--. --.- ..-.

Airport Services

Fuel available: 100LL JET-A
SELF SERVE FUEL WITH MAJOR CREDIT CARD.
Parking: hangars and tiedowns
Airframe service: MAJOR
Powerplant service: MAJOR
Bottled oxygen: LOW
Bulk oxygen: NONE

Runway Information

Runway 16/34

Dimensions: 6080 x 100 ft. / 1853 x 30 m
Surface: concrete, in good condition
Weight bearing capacity: 
Single wheel: 60.0
Runway edge lights: medium intensity
RUNWAY 16  RUNWAY 34
Latitude: 32-40.322683N32-39.341885N
Longitude: 097-05.779817W097-05.533875W
Elevation: 628.2 ft.596.9 ft.
Gradient: 0.7%0.5% UP
Traffic pattern: leftleft
Runway heading: 162 magnetic, 168 true342 magnetic, 348 true
Markings: nonprecision, in good conditionprecision, in good condition
Visual slope indicator: 4-light PAPI on left (3.00 degrees glide path)4-light PAPI on left (3.00 degrees glide path)
PAPI UNUSABLE BYD 8 DEGS RIGHT OF RY CNTRLN.
Approach lights: MALSR: 1,400 foot medium intensity approach lighting system with runway alignment indicator lights
Runway end identifier lights: yesno
Touchdown point: yes, no lightsyes, no lights
Instrument approach: ILS/DME

Airport Ownership and Management from official FAA records

Ownership: Publicly-owned
Owner: CITY OF ARLINGTON
PO BOX 90231
ARLINGTON, TX 76004-3231
Phone 817-459-6100
Manager: KAREN VAN WINKLE
5000 S. COLLINS
ARLINGTON, TX 76004-3231
Phone 817-459-5570
SUITE 100

Airport Operational Statistics

Aircraft based on the field: 191
Single engine airplanes: 157
Multi engine airplanes: 18
Jet airplanes: 7
Helicopters: 9
    
Aircraft operations: avg 242/day *
54% transient general aviation
44% local general aviation
1% air taxi
<1% military
<1% commercial
* for 12-month period ending 31 December 2015

Additional Remarks

EXTENSIVE HELICOPTER TFC WEST OF RWY.
HEL TEST FAC AT ARPT, 1975 OPNS 15200, MOSTLY FM PVT HELIPAD ADJOINING LNDG AREA.

Instrument Procedures

NOTE: All procedures below are presented as PDF files. If you need a reader for these files, you should download the free Adobe Reader.

NOT FOR NAVIGATION. Please procure official charts for flight.
FAA instrument procedures published for use from 8 November 2018 at 0901Z to 6 December 2018 at 0900Z.

 
STARs - Standard Terminal Arrivals
DODJE FIVE   2 pages: [1] [2] (751KB)
KNEAD SEVEN   2 pages: [1] [2] (445KB)
MOTZA EIGHT   2 pages: [1] [2] (500KB)
REEKO THREE (RNAV)   download (199KB)
SASIE FIVE   2 pages: [1] [2] (490KB)
SWVAY FOUR (RNAV)   download (225KB)
TRUUK TWO (RNAV)   download (197KB)
WESAT TWO (RNAV)   download (192KB)
 
IAPs - Instrument Approach Procedures
ILS OR LOC/DME RWY 34   download (261KB)
RNAV (GPS) RWY 34   download (214KB)
VOR/DME RWY 34   download (200KB)
NOTE: Special Alternate Minimums apply   download (16KB)
 
Departure Procedures
DALLAS FOUR   2 pages: [1] [2] (528KB)
GARLAND SIX   2 pages: [1] [2] (357KB)
HUBBARD NINE   2 pages: [1] [2] (345KB)
JOE POOL NINE   2 pages: [1] [2] (539KB)
KINGDOM FOUR   2 pages: [1] [2] (380KB)
KUSSO FIVE (RNAV)   2 pages: [1] [2] (301KB)
SWABR FIVE (RNAV)   2 pages: [1] [2] (295KB)
TEXOMA FIVE   2 pages: [1] [2] (509KB)
WORTH ONE   2 pages: [1] [2] (522KB)
NOTE: Special Take-Off Minimums/Departure Procedures apply   download

Other nearby airports with instrument procedures:

KGPM - Grand Prairie Municipal Airport (3 nm NE)
KRBD - Dallas Executive Airport (11 nm E)
KFWS - Fort Worth Spinks Airport (12 nm SW)
KDFW - Dallas-Fort Worth International Airport (14 nm N)
KJWY - Mid-Way Regional Airport (15 nm SE)
KDAL - Dallas Love Field Airport (16 nm NE)
KFTW - Fort Worth Meacham International Airport (16 nm NW)
KNFW - Fort Worth Naval Air Station JRB (Carswell Field) Airport (19 nm W)
KLNC - Lancaster Regional Airport (20 nm E)
 
Loc | Ops | Rwys | IFR | FBO | Links
Com | Nav | Svcs | Stats | Notes


 
Area around KGKY (Arlington Municipal Airport)
 
Road maps at: MapQuest Bing Google
 
Aerial photo
WARNING: Photo may not be current or correct
Aerial photo of KGKY (Arlington Municipal Airport)
Photo by Jeff Law
Photo taken 19-Feb-2013
looking northwest.

Do you have a better or more recent aerial photo of Arlington Municipal Airport that you would like to share? If so, please send us your photo.

 
Sectional chart

 
Airport diagram
CAUTION: Diagram may not be current
Diagram of KGKY (Arlington Municipal Airport)
 
Airport distance calculator
Flying to Arlington Municipal Airport? Find the distance to fly.

From to KGKY

Sunrise and sunset
Times for 19-Nov-2018
 Local
(UTC-6)
 Zulu
(UTC)
Morning civil twilight06:3712:37
Sunrise07:0313:03
Sunset17:2523:25
Evening civil twilight17:5123:51

Current date and time
Zulu (UTC)  20-Nov-2018 00:59:29
Local (UTC-6)  19-Nov-2018 18:59:29
 
METAR
KGKY 200053Z 00000KT 10SM CLR 06/03 A3021 RMK AO2 SLP232 T00560028
KGPM 
3nm NE 
200035Z AUTO 00000KT 10SM CLR 09/01 A3022 RMK AO2 T00920012
KRBD 
12nm E 
200053Z 01003KT 10SM 08/01 A3020 RMK AO2 SLP229 T00780011 $
KFWS 
12nm SW 
200050Z 00000KT 10SM CLR 07/02 A3022
KDFW 
15nm N 
200053Z 00000KT 10SM FEW300 09/01 A3020 RMK AO2 SLP226 T00890011
KJWY 
15nm SE 
200035Z AUTO 00000KT 10SM CLR 08/02 A3022 RMK AO2 T00760020
KDAL 
17nm NE 
200053Z 00000KT 10SM FEW250 SCT300 09/03 A3022 RMK AO2 SLP231 T00890028 $
KFTW 
17nm NW 
200053Z 35004KT 10SM CLR 09/01 A3021 RMK AO2 SLP229 T00890011
KNFW 
19nm W 
192352Z 35003KT 10SM SCT250 12/02 A3019 RMK SLP206 T01170017 10139 20094 53007 VISNO N
KLNC 
20nm E 
200035Z AUTO 00000KT 10SM CLR 08/02 A3022 RMK AO2 T00760018
TAF
KGKY 192052Z 1921/2018 36006KT P6SM FEW250
KDFW 
15nm N 
192052Z 1921/2024 36006KT P6SM FEW250
KDAL 
17nm NE 
192052Z 1921/2018 36006KT P6SM FEW250
KFTW 
17nm NW 
192052Z 1921/2018 36006KT P6SM FEW250
KNFW 
19nm W 
1923/2023 35006KT 9999 FEW250 QNH3008INS AUTOMATED SENSOR METWATCH 1905 TIL 1912 T08/2011Z T15/2021Z COR 2327 FN00247
NOTAMs
Click for the latest NOTAMs
NOTAMs are issued by the DoD/FAA and will open in a separate window not controlled by AirNav.

 

 
 

FBO, Fuel Providers, and Aircraft Ground Support

  
 Business Name 
 
 Contact 
 
 Services / Description 
 
Fuel Prices
 
Comments
  
Harrison Aviation ASRI 131.325
817-557-0350
toll-free 1-888-383-5354
[web site]
[email]
Arlington is home to the new Dallas Cowboy Stadium and Arlington Municipal Airport is located in the heart of the DFW metroplex with quick access to I-20 and Hwy 360. Dallas, Fort Worth, and Arlington are just minutes away.

Come for your business meeting and then stay for the entertainment (Dallas Cowboys, Texas Rangers, Lone Star Park, Nokia Theater)
More info and photos of Harrison Aviation
 
NATA Safety 1st   U.S. Government Contract Fuel   Crew cars   National Business Aviation Association  
 
Shell
100LL Jet A
FS $5.04 $5.19 
SS $4.44 --- 
 Updated 19-Nov-2018
 
   8 read write
Alternatives at nearby airports
IMPORTANT: Note that the FBOs below are NOT at KGKY but at other nearby airports. Do not expect services from these FBOs to be available at KGKY.
Located at KRBD
Ambassador Jet Center
ASRI 131.90
214-623-8800
214-251-6512
[web site]
[email]
At KRBD (Dallas Executive Airport), 11 miles E

Premier FBO situated minutes south of downtown Dallas - convenient to Dallas Market Center, Dallas Convention Center, American Airline Arena, premier hotels and cultural district as well as Cowboys Stadium, Rangers Ballpark in Arlington, Six Flags, and Lone Star Park. Unmatched personal service provided by our dedicated customer service team.
More info and photos of Ambassador Jet Center (KRBD)
Located at KRBD
EPIC
100LL Jet A
FS $4.95 $4.50 
GUARANTEED
AirBossMEMBER
PRICING
FS $4.85 $4.35 
 
   29 read write
FS=Full service
SS=Self service
Update Fuel Prices
 

Aviation Businesses, Services, and Facilities

  
 Business Name 
 
 Contact 
 
 Services / Description 
 
Distance
 
Comments
  
Airline Transport Professionals - ATP Flight School toll-free 1-800-255-2877
[web site]
[email]
ATP provides professional, accelerated, airline-oriented flight training at 42 flight schools nationwide. ATP's Airline Career Pilot Program prepares pilots for airline careers from zero time to 1,500 hours, with CFI jobs and airline employment. Fly with the nation's largest flight school and gain access to more aircraft, locations, and job placements than any flight school, academy, or aviation university can offer.
More info and photos of Airline Transport Professionals - ATP Flight School
on airport  
   1 read write
 Van Bortel Aircraft
817-468-7788
toll-free 1-800-759-4295
[web site]
[email]
Aircraft maintenance, Avionics sales and service, Aircraft modifications, Aircraft parts, Aviation accessories, Aircraft sales / leasing / brokerage
 
Cessna Service Center   Garmin  
 
More info about Van Bortel Aircraft
on airport  
   write
 

Would you like to see your business listed on this page?

 If your business provides an interesting product or service to pilots, flight crews, aircraft, or users of the Arlington Municipal Airport, you should consider listing it here.  To start the listing process, click on the button below
 
Add a business
 

Other Pages about Arlington Municipal Airport

www.arlingtontx.gov/aviation
 
Update a link
 
Copyright © AirNav, LLC. All rights reserved. Privacy Policy  Contact